Content
SEND FEEDBACK

Daily
Averages
Monthly
Summary
Switzerland

GENEVA, SWITZERLAND


Home > Europe > Switzerland
Elevation: 1364 feet     Latitude: 46 15N     Longitude: 006 08E

WEATHER
 
SELECT A DAY
Number of Records: 306,215;   Date Range: 7/1/96 - 9/16/14
 
SHARE

PRINT THIS DATA

[ ← Previous Day ]
WEATHER ALMANAC - FEBRUARY 18, 2013
[ Next Day → ]
[ °C ]   °F
Weather ElementAverageHighLow
Temperature33.3 °F41 °F (3:50 pm)26.6 °F (10:50 pm)
Dewpoint26.2 °F28.4 °F (5:20 am)24 °F (9:00 am)
Humidity73.5 %93 % (9:20 pm)45 % (5:00 pm)
Barometer30.07 in30.17 in (11:00 pm)30.01 in (2:50 am)
Wind Speed2.4 mph6.9 mph (1:20 pm)
Weather ElementAverage
Visibility6.4 mi
Wind DirectionESE (97.4 °)

Weather ElementTotal
Precipitation---
Heating Degree Days31.2 (Base 65)
Averaged from 66 records on February 18, 2013
WEATHER CONDITIONS BREAKOUT
WIND DIRECTION BREAKOUT
WEATHER BY HOUR - FEBRUARY 18, 2013
[ °C ]   °F
Local TimeTemperatureDewpointHumidityBarometerVisibilityWind DirectionWind SpeedGust SpeedPrecipitationEventsConditions
12:20 AM32.0 °F24.8 °F75 %30.04 in6.2 miVariable1.2 mphScattered Clouds
12:50 AM30.2 °F26.6 °F86 %30.04 in6.2 miVariable2.3 mphScattered Clouds
1:00 AM31.0 °F25.0 °F71 %30.11 in9.0 miNNW (340°)2.3 mphMostly Cloudy
1:20 AM30.2 °F26.6 °F86 %30.04 in6.2 miCalmScattered Clouds
1:50 AM30.2 °F26.6 °F86 %30.04 in6.2 miVariable1.2 mphMostly Cloudy
2:00 AM31.0 °F26.0 °F73 %30.10 inWest (270°)1.2 mph
2:50 AM30.2 °F26.6 °F86 %30.01 in6.2 miCalmMostly Cloudy
3:00 AM31.0 °F26.0 °F74 %30.10 inNW (320°)1.2 mph
3:20 AM30.2 °F26.6 °F86 %30.01 in6.2 miCalmMostly Cloudy
3:50 AM32.0 °F26.6 °F80 %30.01 in6.2 miCalmMostly Cloudy
4:20 AM32.0 °F26.6 °F80 %30.01 in6.2 miCalmMostly Cloudy
4:50 AM32.0 °F26.6 °F80 %30.01 in6.2 miVariable1.2 mphMostly Cloudy
5:00 AM32.0 °F26.0 °F72 %30.09 inNW (310°)1.2 mph
5:20 AM32.0 °F28.4 °F87 %30.04 in6.2 miCalmMostly Cloudy
5:50 AM32.0 °F26.6 °F80 %30.04 in6.2 miCalmMostly Cloudy
6:00 AM32.0 °F26.0 °F71 %30.10 inNE (50°)1.2 mph
6:20 AM32.0 °F26.6 °F80 %30.04 in6.2 miVariable1.2 mphMostly Cloudy
6:50 AM32.0 °F28.4 °F87 %30.04 in6.2 miNW (310°)2.3 mphMostly Cloudy
7:00 AM31.0 °F27.0 °F81 %30.11 in8.0 miNW (310°)3.5 mphMist
7:20 AM32.0 °F28.4 °F87 %30.04 in6.2 miNW (310°)3.5 mphMostly Cloudy
7:50 AM30.2 °F26.6 °F86 %30.04 in6.2 miNW (310°)3.5 mphMostly Cloudy
8:00 AM31.0 °F25.0 °F72 %30.12 inNW (310°)2.3 mph
8:20 AM30.2 °F26.6 °F86 %30.04 in6.2 miCalmMostly Cloudy
8:50 AM32.0 °F24.8 °F75 %30.06 in6.2 miCalmMostly Cloudy
9:00 AM31.0 °F24.0 °F68 %30.13 inNNE (30°)1.2 mph
9:20 AM32.0 °F26.6 °F80 %30.06 in6.2 miVariable1.2 mphMostly Cloudy
9:50 AM33.8 °F26.6 °F75 %30.06 in6.2 miVariable2.3 mphMostly Cloudy
10:20 AM33.8 °F26.6 °F75 %30.06 in6.2 miNNE (20°)2.3 mphMostly Cloudy
10:50 AM35.6 °F28.4 °F75 %30.06 in6.2 miNorth (10°)3.5 mphMostly Cloudy
11:00 AM35.0 °F27.0 °F62 %30.13 inNE (40°)5.8 mph
11:20 AM35.6 °F28.4 °F75 %30.06 in6.2 miNE (50°)4.6 mphMostly Cloudy
11:50 AM37.4 °F28.4 °F70 %30.06 in6.2 miVariable2.3 mphMostly Cloudy
12:00 PM35.0 °F26.0 °F61 %30.14 inNE (50°)4.6 mph
12:20 PM37.4 °F28.4 °F70 %30.06 in6.2 miEast (80°)3.5 mphScattered Clouds
12:50 PM37.4 °F26.6 °F65 %30.06 in6.2 miNNE (30°)3.5 mphScattered Clouds
1:00 PM37.0 °F26.0 °F53 %30.12 in9.0 miENE (60°)4.6 mphHaze
1:20 PM39.2 °F26.6 °F61 %30.06 in6.2 miNE (50°)6.9 mphPartly Cloudy
1:50 PM39.2 °F26.6 °F61 %30.06 in6.2 miNE (50°)5.8 mphPartly Cloudy
2:00 PM38.0 °F25.0 °F47 %30.10 inNE (50°)4.6 mph
2:20 PM39.2 °F26.6 °F61 %30.04 in6.2 miENE (60°)3.5 mphPartly Cloudy
2:50 PM39.2 °F26.6 °F61 %30.04 in6.2 miENE (60°)4.6 mphPartly Cloudy
3:00 PM39.0 °F26.0 °F47 %30.10 inNE (40°)6.9 mph
3:20 PM39.2 °F26.6 °F61 %30.04 in6.2 miNE (50°)5.8 mphPartly Cloudy
3:50 PM41.0 °F26.6 °F57 %30.04 in6.2 miNorth (10°)4.6 mphPartly Cloudy
4:20 PM39.2 °F24.8 °F56 %30.04 in6.2 miNE (40°)4.6 mphPartly Cloudy
4:50 PM39.2 °F24.8 °F56 %30.04 in6.2 miNNE (30°)3.5 mphPartly Cloudy
5:00 PM38.0 °F24.0 °F45 %30.09 inNNE (20°)4.6 mph
5:20 PM39.2 °F26.6 °F61 %30.04 in6.2 miNNE (20°)3.5 mphPartly Cloudy
5:50 PM37.4 °F24.8 °F60 %30.04 in6.2 miVariable3.5 mphPartly Cloudy
6:00 PM36.0 °F25.0 °F52 %30.10 inNorth3.5 mph
6:20 PM35.6 °F26.6 °F70 %30.04 in6.2 miVariable2.3 mphPartly Cloudy
6:50 PM32.0 °F24.8 °F75 %30.06 inVariable2.3 mphClear
7:00 PM33.0 °F25.0 °F63 %30.13 in8.0 miNW (320°)2.3 mphHaze
7:20 PM32.0 °F26.6 °F80 %30.06 inNW (310°)2.3 mphClear
7:50 PM32.0 °F26.6 °F80 %30.06 inVariable2.3 mphClear
8:00 PM33.0 °F26.0 °F65 %30.14 inWNW (300°)2.3 mph
8:20 PM32.0 °F26.6 °F80 %30.06 inVariable1.2 mphClear
8:50 PM30.2 °F26.6 °F86 %30.06 inSW (230°)1.2 mphClear
9:00 PM30.0 °F26.0 °F77 %30.15 inWNW (290°)1.2 mph
9:20 PM28.4 °F26.6 °F93 %30.06 inCalmClear
9:50 PM28.4 °F26.6 °F93 %30.06 inCalmClear
10:20 PM28.4 °F24.8 °F86 %30.09 inWNW (300°)2.3 mphClear
10:50 PM26.6 °F24.8 °F93 %30.09 inWSW (240°)1.2 mphClear
11:00 PM28.0 °F25.0 °F83 %30.17 inWest (260°)2.3 mph
11:20 PM26.6 °F24.8 °F93 %30.09 inWSW (250°)1.2 mphClear
11:50 PM26.6 °F24.8 °F93 %30.09 inWSW (240°)1.2 mphClear
Hourly data recorded from LSGG, located miles away from Geneva, Switzerland







STORIES FROM OUR PARTNERS